Regional Weather Roundup
Issued by NWS

Home | Current Version | Previous Version | Graphics & Text | Print | Product List | Glossary On
Versions: 1 2 3 4 5 6 7 8 9 10 11 12 13 14 15 16 17 18 19 20 21 22 23 24 25 26 27 28 29 30 31 32 33 34 35 36 37 38 39 40 41 42 43 44 45 46 47 48 49
000
ASUS45 KCYS 020410
RWRWY

WYOMING REGIONAL WEATHER ROUNDUP
NATIONAL WEATHER SERVICE CHEYENNE WY
900 PM MST SUN MAR 01 2015

NOTE:  "FAIR" INDICATES FEW OR NO CLOUDS BELOW 12,000 FEET
WITH NO SIGNIFICANT WEATHER AND/OR OBSTRUCTIONS TO VISIBILITY.

WYZ001-020500-
YELLOWSTONE NATIONAL PARK

CITY           SKY/WX    TMP DP  RH WIND       PRES   REMARKS
LK YELLOWSTONE   N/A     -1  -8  72 CALM      30.00S
W YELLOWSTONE  NOT AVBL

$$
WYZ002>013-054>058-071-098>099-020500-
NORTHERN WYOMING

CITY           SKY/WX    TMP DP  RH WIND       PRES   REMARKS
JACKSON        NOT AVBL
CODY           FAIR      18  12  79 S8        30.04F WCI   7
GREYBULL       FAIR      22  10  60 E6        30.12F WCI  14
WORLAND        FAIR      21  11  65 SE12      30.11F WCI   9
SHERIDAN       FAIR      11   3  70 S5        30.09F WCI   3
BUFFALO        FAIR      17   7  64 S14       30.08F WCI   3
GILLETTE       FAIR      12   5  73 S7        30.15F WCI   1
HULETT         FAIR      12   3  67 SE5       30.18F WCI   4
NEWCASTLE      FAIR      19   3  49 E7        30.21F WCI  10

$$
WYZ014>020-022>026-101>103-020500-
CENTRAL WYOMING

CITY           SKY/WX    TMP DP  RH WIND       PRES   REMARKS
BIG PINEY      FAIR      17  12  80 N7        30.04F WCI   8
PINEDALE       FAIR       9   3  78 NW7       30.05S WCI  -3
DUBOIS         FAIR      10   7  85 W7        30.02F WCI   0
LANDER         FAIR      15   8  73 SW5       30.07F WCI   8
RIVERTON       FAIR      17   7  64 E3        30.09F
CASPER         FAIR      21  13  71 SE8       30.10F WCI  11
DOUGLAS        FAIR      23  11  60 SE14      30.15F WCI  11

$$
WYZ021-027>030-104>119-020500-
SOUTHERN WYOMING

CITY           SKY/WX    TMP DP  RH WIND       PRES   REMARKS
EVANSTON       MOCLDY    25  20  81 E6        30.01S WCI  18
FORT BRIDGER   FAIR      23  21  93 S3        30.03F
ROCK SPRINGS   FAIR      24  16  71 E5        30.00F WCI  18
DIXON          CLOUDY    30  25  81 CALM      30.08R
RAWLINS        FAIR      24  15  68 E6        30.05F WCI  17
SARATOGA       MOCLDY    27  21  80 SE5       30.05F WCI  21
LARAMIE        FAIR      15  12  88 SE17      30.08F WCI  -1
CHEYENNE       FAIR      20  13  74 S12       30.18R WCI   8
TORRINGTON     FAIR      22   8  55 E8        30.23F WCI  12
PINE BLUFFS    MOCLDY    25  19  80 S3        30.23S

$$


USA.gov is the U.S. government's official web portal to all federal, state and local government web resources and services.